Bar Harbor, ME

11:37 PM EST on January 19, 2018 (GMT -0500)
Hancock County-Bar Harbor

Weather History for KBHB - January, 2013

Change the Weather History Date:

Thursday, January 10, 2013

  Actual Average Record
Temperature  
Mean Temperature 35 °F -  
Max Temperature 42 °F 25 °F 51 °F (2016)
Min Temperature 28 °F 10 °F -9 °F (1960)
Degree Days  
Heating Degree Days 30    
Moisture  
Dew Point 26 °F    
Average Humidity 64    
Maximum Humidity 81    
Minimum Humidity 46    
Precipitation  
Precipitation 0.00 in - - ()
Sea Level Pressure  
Sea Level Pressure 30.13 in    
Wind  
Wind Speed 10 mph (WNW)    
Max Wind Speed 23 mph    
Max Gust Speed 37 mph    
Visibility 10 miles    
Events      
Averages and records for this station are not official NWS values.
T = Trace of Precipitation, MM = Missing Value Source: NWS Daily Summary

Daily Weather History Graph

Daily Weather History Graph

Search for Another Location

Airport or City:

Trip Planner

Search our weather history database for the weather conditions in past years. The results will help you decide how hot, cold, wet, or windy it might be!

Date:

Astronomy

Jan. 10, 2013 Rise Set
Actual Time 7:08 AM EST 4:14 PM EST
Civil Twilight 6:35 AM EST 4:46 PM EST
Nautical Twilight 5:59 AM EST 5:23 PM EST
Astronomical Twilight 5:24 AM EST 5:58 PM EST
Moon 5:44 AM EST (1/10) 3:18 PM EST (1/10)
Length of Visible Light 10h 11m
Length of Day
9h 05m
Waning Crescent, 2% of the Moon is Illuminated
Jan 10
Waning Crescent
Jan 11
New
Jan 18
First Quarter
Jan 26
Full
Feb 3
Last Quarter

Hourly Weather History & Observations

Time (EST) Temp. Windchill Dew Point Humidity Pressure Visibility Wind Dir Wind Speed Gust Speed Precip Events Conditions
12:15 AM 37.4 °F 32.8 °F 32.0 °F 81% 29.82 in 10.0 mi WSW 5.8 mph - N/A   Clear
12:55 AM 35.6 °F 32.8 °F 30.2 °F 81% 29.82 in 10.0 mi WSW 3.5 mph - N/A   Clear
1:15 AM 35.6 °F 30.7 °F 30.2 °F 81% 29.83 in 10.0 mi WSW 5.8 mph - N/A   Clear
1:35 AM 35.6 °F 29.9 °F 30.2 °F 81% 29.83 in 10.0 mi SW 6.9 mph - N/A   Clear
1:55 AM 35.6 °F 30.7 °F 30.2 °F 81% 29.83 in 10.0 mi WSW 5.8 mph - N/A   Clear
2:15 AM 35.6 °F 31.7 °F 30.2 °F 81% 29.84 in 10.0 mi SW 4.6 mph - N/A   Clear
2:36 AM 35.6 °F 28.6 °F 30.2 °F 81% 29.84 in 10.0 mi WSW 9.2 mph - N/A   Clear
2:55 AM 35.6 °F 31.7 °F 30.2 °F 81% 29.85 in 10.0 mi SW 4.6 mph - N/A   Clear
3:15 AM 35.6 °F 30.7 °F 30.2 °F 81% 29.85 in 10.0 mi WSW 5.8 mph - N/A   Clear
3:35 AM 35.6 °F 30.7 °F 30.2 °F 81% 29.86 in 10.0 mi WSW 5.8 mph - N/A   Clear
3:55 AM 35.6 °F 29.9 °F 30.2 °F 81% 29.87 in 10.0 mi SW 6.9 mph - N/A   Partly Cloudy
4:15 AM 35.6 °F 29.9 °F 30.2 °F 81% 29.87 in 10.0 mi WSW 6.9 mph - N/A   Scattered Clouds
4:35 AM 37.4 °F 31.4 °F 30.2 °F 75% 29.89 in 10.0 mi West 8.1 mph - N/A   Scattered Clouds
4:55 AM 37.4 °F 30.8 °F 30.2 °F 75% 29.90 in 10.0 mi West 9.2 mph - N/A   Partly Cloudy
5:15 AM 37.4 °F 31.4 °F 30.2 °F 75% 29.92 in 10.0 mi WNW 8.1 mph - N/A   Clear
5:35 AM 37.4 °F 27.8 °F 30.2 °F 75% 29.93 in 10.0 mi WNW 17.3 mph 26.5 mph N/A   Clear
5:55 AM 39.2 °F 30.8 °F 30.2 °F 70% 29.95 in 10.0 mi WNW 15.0 mph 23.0 mph N/A   Partly Cloudy
6:15 AM 39.2 °F 31.6 °F 30.2 °F 70% 29.97 in 10.0 mi WNW 12.7 mph 26.5 mph N/A   Mostly Cloudy
6:35 AM 39.2 °F 31.6 °F 30.2 °F 70% 29.99 in 10.0 mi WNW 12.7 mph 25.3 mph N/A   Overcast
6:55 AM 39.2 °F 29.8 °F 28.4 °F 65% 30.00 in 10.0 mi WNW 18.4 mph 27.6 mph N/A   Overcast
7:35 AM 39.2 °F 31.2 °F 28.4 °F 65% 30.04 in 10.0 mi NW 13.8 mph 23.0 mph N/A   Overcast
7:55 AM 39.2 °F 30.5 °F 28.4 °F 65% 30.05 in 10.0 mi WNW 16.1 mph 26.5 mph N/A   Overcast
8:15 AM 39.2 °F 30.8 °F 26.6 °F 61% 30.06 in 10.0 mi NW 15.0 mph 23.0 mph N/A   Overcast
8:55 AM 39.2 °F 32.5 °F 26.6 °F 61% 30.07 in 10.0 mi NW 10.4 mph 20.7 mph N/A   Overcast
9:35 AM 41.0 °F 34.7 °F 28.4 °F 61% 30.08 in 10.0 mi NW 10.4 mph 23.0 mph N/A   Clear
9:55 AM 42.8 °F 36.2 °F 28.4 °F 57% 30.09 in 10.0 mi WNW 12.7 mph 24.2 mph N/A   Mostly Cloudy
10:15 AM 41.0 °F 32.5 °F 28.4 °F 61% 30.09 in 10.0 mi NW 17.3 mph 35.7 mph N/A   Scattered Clouds
10:35 AM 41.0 °F 32.2 °F 28.4 °F 61% 30.09 in 10.0 mi WNW 18.4 mph 32.2 mph N/A   Mostly Cloudy
10:55 AM 41.0 °F 32.2 °F 26.6 °F 57% 30.09 in 10.0 mi NW 18.4 mph 31.1 mph N/A   Mostly Cloudy
11:15 AM 41.0 °F 34.3 °F 26.6 °F 57% 30.09 in 10.0 mi NW 11.5 mph 25.3 mph N/A   Overcast
11:35 AM 42.8 °F 34.0 °F 26.6 °F 53% 30.08 in 10.0 mi NW 20.7 mph 33.4 mph N/A   Overcast
11:55 AM 42.8 °F 35.4 °F 24.8 °F 49% 30.08 in 10.0 mi NW 15.0 mph 31.1 mph N/A   Mostly Cloudy
12:15 PM 42.8 °F 34.0 °F 24.8 °F 49% 30.09 in 10.0 mi NW 20.7 mph 31.1 mph N/A   Partly Cloudy
12:35 PM 42.8 °F 34.5 °F 24.8 °F 49% 30.09 in 10.0 mi NW 18.4 mph 32.2 mph N/A   Clear
12:55 PM 42.8 °F 33.8 °F 24.8 °F 49% 30.10 in 10.0 mi NW 21.9 mph 34.5 mph N/A   Clear
1:15 PM 42.8 °F 34.5 °F 24.8 °F 49% 30.11 in 10.0 mi NW 18.4 mph 36.8 mph N/A   Clear
1:35 PM 42.8 °F 33.8 °F 24.8 °F 49% 30.12 in 10.0 mi NW 21.9 mph 31.1 mph N/A   Clear
1:55 PM 42.8 °F 33.5 °F 23.0 °F 46% 30.12 in 10.0 mi NW 23.0 mph 33.4 mph N/A   Clear
2:15 PM 42.8 °F 35.1 °F 23.0 °F 46% 30.14 in 10.0 mi NW 16.1 mph 29.9 mph N/A   Clear
2:35 PM 41.0 °F 33.5 °F 24.8 °F 53% 30.15 in 10.0 mi NW 13.8 mph 25.3 mph N/A   Clear
2:55 PM 41.0 °F 32.2 °F 23.0 °F 49% 30.17 in 10.0 mi NNW 18.4 mph 28.8 mph N/A   Clear
3:15 PM 41.0 °F 33.5 °F 23.0 °F 49% 30.19 in 10.0 mi NW 13.8 mph 26.5 mph N/A   Clear
3:35 PM 39.2 °F 30.8 °F 23.0 °F 52% 30.21 in 10.0 mi NW 15.0 mph 23.0 mph N/A   Clear
3:55 PM 39.2 °F 32.5 °F 21.2 °F 49% 30.22 in 10.0 mi NW 10.4 mph 26.5 mph N/A   Clear
4:15 PM 37.4 °F 30.8 °F 21.2 °F 52% 30.25 in 10.0 mi NW 9.2 mph 17.3 mph N/A   Clear
4:35 PM 37.4 °F 31.4 °F 21.2 °F 52% 30.27 in 10.0 mi NNW 8.1 mph 18.4 mph N/A   Clear
4:55 PM 35.6 °F 29.2 °F 21.2 °F 56% 30.28 in 10.0 mi NNW 8.1 mph - N/A   Clear
5:15 PM 35.6 °F 29.2 °F 23.0 °F 60% 30.29 in 10.0 mi NW 8.1 mph 18.4 mph N/A   Clear
5:35 PM 35.6 °F 28.0 °F 21.2 °F 56% 30.31 in 10.0 mi NNW 10.4 mph 19.6 mph N/A   Clear
5:55 PM 35.6 °F 29.9 °F 21.2 °F 56% 30.32 in 10.0 mi NNW 6.9 mph - N/A   Clear
6:15 PM 33.8 °F 25.3 °F 21.2 °F 60% 30.33 in 10.0 mi NW 11.5 mph 16.1 mph N/A   Clear
6:35 PM 33.8 °F 25.8 °F 21.2 °F 60% 30.35 in 10.0 mi NNW 10.4 mph 20.7 mph N/A   Clear
6:55 PM 33.8 °F 25.8 °F 21.2 °F 60% 30.36 in 10.0 mi NNW 10.4 mph 23.0 mph N/A   Clear
7:15 PM 33.8 °F 26.4 °F 21.2 °F 60% 30.38 in 10.0 mi NW 9.2 mph 16.1 mph N/A   Clear
7:35 PM 33.8 °F 25.8 °F 21.2 °F 60% 30.38 in 10.0 mi NW 10.4 mph 16.1 mph N/A   Clear
7:55 PM 33.8 °F 28.6 °F 21.2 °F 60% 30.40 in 10.0 mi NW 5.8 mph - N/A   Clear
8:15 PM 33.8 °F 27.0 °F 21.2 °F 60% 30.41 in 10.0 mi NNW 8.1 mph 16.1 mph N/A   Clear
8:35 PM 32.0 °F 24.8 °F 21.2 °F 64% 30.41 in 10.0 mi NW 8.1 mph - N/A   Clear
8:55 PM 32.0 °F 25.6 °F 21.2 °F 64% 30.42 in 10.0 mi NW 6.9 mph - N/A   Clear
9:15 PM 30.2 °F 23.4 °F 21.2 °F 69% 30.42 in 10.0 mi NW 6.9 mph - N/A   Clear
9:55 PM 30.2 °F 23.4 °F 21.2 °F 69% 30.44 in 10.0 mi NW 6.9 mph - N/A   Clear
10:15 PM 30.2 °F 26.7 °F 21.2 °F 69% 30.46 in 10.0 mi NW 3.5 mph - N/A   Clear
10:35 PM 30.2 °F - 21.2 °F 69% 30.46 in 10.0 mi Calm Calm - N/A   Clear
10:55 PM 28.4 °F - 21.2 °F 74% 30.47 in 10.0 mi Calm Calm - N/A   Clear
11:15 PM 28.4 °F 22.2 °F 21.2 °F 74% 30.47 in 10.0 mi NW 5.8 mph - N/A   Clear
11:35 PM 28.4 °F 22.2 °F 21.2 °F 74% 30.49 in 10.0 mi WNW 5.8 mph - N/A   Clear